Find Starlink 11312

NORAD ID: 61689 Int'l Des: 2024-195 Owner: SPXS Country: US Constellation: starlink operational
LEOCIRCULAR

当前视图

正在加载3D地球...

About Starlink 11312

Starlink 11312 (NORAD 61689) is a starlink constellation satellite (v2 mini d2c) launched Oct 30, 2024 by SPXS of US. It operates in LEO, CIRCULAR orbit with a mass of 960.00 kg.

关于 Starlink 11312

正在加载描述...

即将过境

Passes for default location (London). Set your location on the main map for personalized predictions.

高度历史

Loading altitude history...

两行轨道根数

1 61689U 24195C 26167.52528494 .00001382 00000-0 16259-4 0 9993
2 61689 53.1589 259.2761 0000936 74.6651 285.4470 15.69709006 94558
Epoch: Jun 16, 2026 • Age: 7 hours

当前状态

高度 378.2 km
速度 7.68 km/s
星下点 -51.67°S, 54.06°W
发射日期 Oct 30, 2024
运行时间 1.6 years
类型 internet

技术详情

分类 Payload
质量 960.00 kg
干质量 910.00 kg
总质量 960.00 kg
长度 0.30 m
直径 4.10 m
跨度 29.00 m
形状 Box + pan
制造商 SPXS
平台类型 Starlink V2MD
阶段状态 In Orbit
所有者/国家 SPXS/US

Most Searched